Beckley, WV

3:41 AM EST on February 25, 2018 (GMT -0500)
Raleigh County Memorial

Weather History for KBKW - October, 2012

Change the Weather History Date:

Saturday, October 6, 2012

  Actual Average Record
Temperature  
Mean Temperature 51 °F 56 °F  
Max Temperature 61 °F 66 °F 88 °F (1941)
Min Temperature 40 °F 46 °F 27 °F (1964)
Degree Days  
Heating Degree Days 14 9  
Month to date heating degree days 32 52  
Since 1 July heating degree days 150 186  
Cooling Degree Days 0 0  
Month to date cooling degree days 2 2  
Year to date cooling degree days 760 552  
Moisture  
Dew Point 46 °F    
Average Humidity 81    
Maximum Humidity 93    
Minimum Humidity 69    
Precipitation  
Precipitation 0.02 in 0.08 in 1.40 in (2014)
Month to date precipitation 0.82 0.48  
Year to date precipitation 36.83 33.15  
Snow  
Snow 0.00 in 0.00 in T in (1935)
Month to date snowfall 0.0 0.0  
Since 1 September snowfall 0.0 0.0  
Snow Depth 0.00 in    
Sea Level Pressure  
Sea Level Pressure 30.03 in    
Wind  
Wind Speed 6 mph (WNW)    
Max Wind Speed 15 mph    
Max Gust Speed 18 mph    
Visibility 10 miles    
Events Rain    
T = Trace of Precipitation, MM = Missing Value Source: NWS Daily Summary

Daily Weather History Graph

Daily Weather History Graph

Search for Another Location

Airport or City:

Trip Planner

Search our weather history database for the weather conditions in past years. The results will help you decide how hot, cold, wet, or windy it might be!

Date:

Astronomy

Oct. 06, 2012 Rise Set
Actual Time 7:24 AM EDT 6:59 PM EDT
Civil Twilight 6:58 AM EDT 7:25 PM EDT
Nautical Twilight 6:28 AM EDT 7:55 PM EDT
Astronomical Twilight 5:57 AM EDT 8:26 PM EDT
Moon 11:18 PM EDT (10/6) 1:13 PM EDT (10/6)
Length of Visible Light 12h 26m
Length of Day
11h 34m
Waning Gibbous, 65% of the Moon is Illuminated
Oct 6
Waning Gibbous
Oct 8
Last Quarter
Oct 15
New
Oct 21
First Quarter
Oct 29
Full

Hourly Weather History & Observations

Time (EDT) Temp. Windchill Dew Point Humidity Pressure Visibility Wind Dir Wind Speed Gust Speed Precip Events Conditions
12:51 AM 60.1 °F - 50.0 °F 69% 29.95 in 10.0 mi South 8.1 mph - N/A   Partly Cloudy
1:51 AM 61.0 °F - 50.0 °F 67% 29.93 in 10.0 mi SSW 6.9 mph - N/A   Partly Cloudy
2:51 AM 60.1 °F - 51.1 °F 72% 29.92 in 10.0 mi SSW 6.9 mph - N/A   Clear
3:51 AM 60.1 °F - 51.1 °F 72% 29.91 in 10.0 mi SW 11.5 mph - N/A   Scattered Clouds
4:51 AM 60.1 °F - 52.0 °F 75% 29.91 in 10.0 mi SW 10.4 mph - N/A   Mostly Cloudy
5:51 AM 61.0 °F - 52.0 °F 72% 29.90 in 10.0 mi SW 9.2 mph - N/A   Overcast
6:51 AM 60.1 °F - 53.1 °F 78% 29.92 in 10.0 mi West 5.8 mph - N/A   Overcast
7:51 AM 59.0 °F - 53.6 °F 82% 29.99 in 10.0 mi WSW 6.9 mph - N/A   Overcast
8:07 AM 59.0 °F - 53.6 °F 82% 30.00 in 10.0 mi WSW 5.8 mph - N/A   Overcast
8:41 AM 57.2 °F - 55.4 °F 94% 30.00 in 10.0 mi WNW 6.9 mph - 0.01 in Rain Light Rain
8:51 AM 57.9 °F - 55.0 °F 90% 29.96 in 10.0 mi WNW 5.8 mph - 0.02 in Rain Light Rain
9:10 AM 53.6 °F - 51.8 °F 94% 30.01 in 10.0 mi NNW 12.7 mph - 0.00 in Rain Light Rain
9:51 AM 51.1 °F - 50.0 °F 96% 30.01 in 10.0 mi NW 11.5 mph - 0.00 in   Overcast
10:51 AM 48.0 °F - 46.9 °F 96% 30.04 in 10.0 mi NNW 11.5 mph - 0.00 in Rain Light Rain
11:30 AM 46.4 °F 41.1 °F 44.6 °F 93% 30.07 in 10.0 mi NNW 11.5 mph - 0.00 in   Overcast
11:51 AM 46.9 °F - 45.0 °F 93% 30.06 in 10.0 mi NNW 10.4 mph - 0.00 in Rain Light Rain
12:51 PM 46.9 °F - 45.0 °F 93% 30.07 in 10.0 mi NW 8.1 mph - 0.00 in   Overcast
1:23 PM 46.4 °F 41.1 °F 44.6 °F 93% 30.08 in 10.0 mi NNW 11.5 mph - N/A   Overcast
1:47 PM 48.2 °F - 44.6 °F 87% 30.08 in 10.0 mi NW 12.7 mph - N/A   Overcast
1:51 PM 48.0 °F - 45.0 °F 89% 30.05 in 10.0 mi NW 10.4 mph - N/A   Overcast
2:21 PM 50.0 °F - 42.8 °F 76% 30.07 in 10.0 mi WNW 10.4 mph 17.3 mph N/A   Overcast
2:36 PM 51.8 °F - 42.8 °F 71% 30.07 in 10.0 mi WNW 11.5 mph - N/A   Overcast
2:51 PM 51.1 °F - 42.1 °F 71% 30.04 in 10.0 mi NW 10.4 mph - N/A   Mostly Cloudy
3:48 PM 48.2 °F - 41.0 °F 76% 30.06 in 10.0 mi North 9.2 mph - N/A   Overcast
3:51 PM 48.2 °F - 41.0 °F 76% 30.06 in 10.0 mi North 8.1 mph - N/A   Overcast
3:58 PM 50.0 °F - 41.0 °F 71% 30.06 in 10.0 mi North 8.1 mph - N/A   Overcast
4:51 PM 48.9 °F - 39.9 °F 71% 30.02 in 10.0 mi NNW 4.6 mph - N/A   Mostly Cloudy
5:42 PM 48.2 °F - 39.2 °F 71% 30.05 in 10.0 mi NNW 3.5 mph - N/A   Scattered Clouds
5:51 PM 48.2 °F - 39.2 °F 71% 30.06 in 10.0 mi NNW 4.6 mph - N/A   Partly Cloudy
6:51 PM 46.4 °F - 39.2 °F 76% 30.07 in 10.0 mi Calm Calm - N/A   Clear
7:51 PM 44.1 °F - 39.0 °F 82% 30.09 in 10.0 mi Calm Calm - N/A   Partly Cloudy
8:51 PM 42.1 °F 40.2 °F 39.0 °F 89% 30.11 in 10.0 mi South 3.5 mph - N/A   Clear
9:51 PM 42.1 °F - 39.0 °F 89% 30.13 in 10.0 mi Calm Calm - N/A   Clear
10:51 PM 39.9 °F - 37.9 °F 93% 30.13 in 10.0 mi Calm Calm - N/A   Clear
11:51 PM 41.0 °F - 39.0 °F 93% 30.11 in 10.0 mi Calm Calm - N/A   Mostly Cloudy